Location: Moydans
(44.3997°N, 5.5038°E)
Time: 10:17:35
(UTC+02:00)

Envisat - Pass Details

Date: 01 October 2021
Orbit: 764 x 766 km, 98.2° (Epoch: 25 October)

Event Time Altitude Azimuth Distance (km) Brightness Sun altitude
Rises 05:34:43 0° 29° (NNE) 3,239 7.0 -22.2°
Reaches altitude 10° 05:37:50 10° 49° (NE) 2,306 6.4 -21.6°
Maximum altitude 05:41:09 17° 90° (E) 1,843 5.9 -21.1°
Drops below altitude 10° 05:44:27 10° 131° (SE) 2,295 5.9 -20.5°
Sets 05:47:31 0° 151° (SSE) 3,215 6.4 -20.0°
